This is the latest recevied weather packets stored in our database for station/object DG8SF-13. If no packets are shown the sender has not sent any weather packets the latest 1 day(s).
| Time | Temp. | Humidity | Pressure | Rain* | Wind** | Luminosity | Snow |
|---|---|---|---|---|---|---|---|
| 1777994454 | 16.67° C | 70% | 1006.6 hPa | 0 mm | 0 m/s | - | - |
| 1777994142 | 16.67° C | 68% | 1006.5 hPa | 0 mm | 0.45 m/s, 225° | - | - |
| 1777993828 | 16.67° C | 71% | 1006.6 hPa | 0 mm | 0.45 m/s, 225° | - | - |
| 1777993530 | 16.11° C | 71% | 1006.5 hPa | 0 mm | 0.45 m/s, 225° | - | - |
| 1777993206 | 16.11° C | 71% | 1006.3 hPa | 0 mm | 0.89 m/s, 112° | - | - |
| 1777992895 | 16.67° C | 71% | 1006.5 hPa | 0 mm | 0.89 m/s, 202° | - | - |
| 1777992581 | 16.11° C | 71% | 1006.6 hPa | 0 mm | 0.89 m/s, 248° | - | - |
| 1777992269 | 16.11° C | 73% | 1006.6 hPa | 0 mm | 0.89 m/s, 248° | - | - |
| 1777991956 | 16.67° C | 72% | 1006.5 hPa | 0 mm | 0.45 m/s, 248° | - | - |
| 1777991647 | 16.11° C | 73% | 1006.7 hPa | 0 mm | 0.45 m/s, 248° | - | - |
| 1777991334 | 16.11° C | 71% | 1006.8 hPa | 0 mm | 0.45 m/s, 248° | - | - |
| 1777991020 | 16.11° C | 70% | 1006.8 hPa | 0 mm | 0.45 m/s, 248° | - | - |
| 1777990709 | 16.11° C | 70% | 1006.7 hPa | 0 mm | 0.45 m/s, 248° | - | - |
| 1777990399 | 16.11° C | 70% | 1006.7 hPa | 0 mm | 0.89 m/s, 248° | - | - |
| 1777990084 | 16.67° C | 71% | 1006.6 hPa | 0 mm | 0.89 m/s, 225° | - | - |
| 1777989774 | 16.67° C | 71% | 1006.5 hPa | 0 mm | 0.89 m/s, 225° | - | - |
| 1777989461 | 16.67° C | 70% | 1006.4 hPa | 0 mm | 0.89 m/s, 225° | - | - |
| 1777989153 | 17.22° C | 70% | 1006.5 hPa | 0 mm | 0.45 m/s, 225° | - | - |
| 1777988838 | 17.78° C | 72% | 1006.8 hPa | 0 mm | 0.45 m/s, 225° | - | - |
| 1777988528 | 16.67° C | 69% | 1007 hPa | 0.51 mm | 0.45 m/s, 225° | - | - |
| 1777988211 | 17.22° C | 71% | 1006.9 hPa | 0.51 mm | 0.45 m/s, 225° | - | - |
| 1777987904 | 16.67° C | 73% | 1007 hPa | 0.51 mm | 0.45 m/s, 225° | - | - |
| 1777987589 | 16.67° C | 76% | 1007.2 hPa | 0.51 mm | 0.45 m/s, 225° | - | - |
| 1777987278 | 16.67° C | 76% | 1007.2 hPa | 0.51 mm | 0.45 m/s, 225° | - | - |
| 1777986964 | 16.11° C | 79% | 1007.2 hPa | 0.51 mm | 0.45 m/s, 225° | - | - |
* Rain latest hour (hover to see other rain measurements)
** Current wind speed in m/s (hover to see current wind gust speed)